Saint Bonnet de Bellac- Haute Vienne - France
Donnes mto: mercredi, 04/07/2012
Date Horaire Temp. E. Hum. E. P.atmo. Pluie Vent Direction Direction Ensoleilleme Solaire P. de rose Temp au vent Rafales
04/07/2012 00:00 19,7 C 73 % 1014,1 hPa 0,0 mm 0,4 km/h (0 Bft) O-SO 247 0 min 0 W/m 14,7 C 19,7 C 4,3 km/h (1 Bft)
04/07/2012 00:10 19,3 C 73 % 1014,0 hPa 0,0 mm 0,0 km/h (0 Bft) SO 225 0 min 0 W/m 14,3 C 19,3 C 0,0 km/h (0 Bft)
04/07/2012 00:20 19,1 C 72 % 1013,9 hPa 0,0 mm 0,0 km/h (0 Bft) O-SO 247 0 min 0 W/m 13,9 C 19,1 C 0,0 km/h (0 Bft)
04/07/2012 00:30 18,9 C 73 % 1013,9 hPa 0,0 mm 0,0 km/h (0 Bft) O-SO 247 0 min 0 W/m 13,9 C 18,9 C 0,0 km/h (0 Bft)
04/07/2012 00:40 18,6 C 73 % 1014,0 hPa 0,0 mm 0,0 km/h (0 Bft) O-SO 247 0 min 0 W/m 13,7 C 18,6 C 0,0 km/h (0 Bft)
04/07/2012 00:50 18,4 C 73 % 1013,9 hPa 0,0 mm 0,0 km/h (0 Bft) O-SO 247 0 min 0 W/m 13,5 C 18,4 C 0,0 km/h (0 Bft)
04/07/2012 01:00 18,3 C 74 % 1013,8 hPa 0,0 mm 0,0 km/h (0 Bft) O-SO 247 0 min 0 W/m 13,6 C 18,3 C 0,0 km/h (0 Bft)
04/07/2012 01:10 18,1 C 74 % 1013,8 hPa 0,0 mm 0,0 km/h (0 Bft) O-SO 247 0 min 0 W/m 13,4 C 18,1 C 0,0 km/h (0 Bft)
04/07/2012 01:20 17,9 C 75 % 1013,7 hPa 0,0 mm 0,0 km/h (0 Bft) O-SO 247 0 min 0 W/m 13,4 C 17,9 C 0,0 km/h (0 Bft)
04/07/2012 01:30 17,8 C 75 % 1013,5 hPa 0,0 mm 0,0 km/h (0 Bft) O-SO 247 0 min 0 W/m 13,3 C 17,8 C 0,0 km/h (0 Bft)
04/07/2012 01:40 17,6 C 76 % 1013,5 hPa 0,0 mm 0,0 km/h (0 Bft) O-SO 247 0 min 0 W/m 13,3 C 17,6 C 0,0 km/h (0 Bft)
04/07/2012 01:50 17,5 C 75 % 1013,4 hPa 0,0 mm 0,0 km/h (0 Bft) O-SO 247 0 min 0 W/m 13,0 C 17,5 C 0,0 km/h (0 Bft)
04/07/2012 02:00 17,4 C 76 % 1013,5 hPa 0,0 mm 0,0 km/h (0 Bft) O-SO 247 0 min 0 W/m 13,1 C 17,4 C 0,0 km/h (0 Bft)
04/07/2012 02:10 17,3 C 77 % 1013,4 hPa 0,0 mm 0,0 km/h (0 Bft) O-SO 247 0 min 0 W/m 13,2 C 17,3 C 0,0 km/h (0 Bft)
04/07/2012 02:20 17,1 C 78 % 1013,3 hPa 0,0 mm 0,0 km/h (0 Bft) O-SO 247 0 min 0 W/m 13,2 C 17,1 C 0,0 km/h (0 Bft)
04/07/2012 02:30 16,9 C 78 % 1013,2 hPa 0,0 mm 0,0 km/h (0 Bft) O-SO 247 0 min 0 W/m 13,0 C 16,9 C 0,0 km/h (0 Bft)
04/07/2012 02:40 16,9 C 79 % 1013,2 hPa 0,0 mm 0,0 km/h (0 Bft) O-SO 247 0 min 0 W/m 13,2 C 16,9 C 0,0 km/h (0 Bft)
04/07/2012 02:50 16,8 C 79 % 1013,1 hPa 0,0 mm 0,0 km/h (0 Bft) O-SO 247 0 min 0 W/m 13,1 C 16,8 C 0,0 km/h (0 Bft)
04/07/2012 03:02 16,8 C 79 % 1013,1 hPa 0,0 mm 0,0 km/h (0 Bft) O-SO 247 0 min 0 W/m 13,1 C 16,8 C 0,0 km/h (0 Bft)
04/07/2012 03:10 16,6 C 80 % 1013,1 hPa 0,0 mm 0,0 km/h (0 Bft) O-SO 247 0 min 0 W/m 13,1 C 16,6 C 0,0 km/h (0 Bft)
04/07/2012 03:20 16,5 C 82 % 1013,1 hPa 0,0 mm 0,0 km/h (0 Bft) SO 225 0 min 0 W/m 13,4 C 16,5 C 0,0 km/h (0 Bft)
04/07/2012 03:30 16,4 C 84 % 1013,1 hPa 0,0 mm 0,0 km/h (0 Bft) SO 225 0 min 0 W/m 13,7 C 16,4 C 0,0 km/h (0 Bft)
04/07/2012 03:40 16,3 C 84 % 1013,0 hPa 0,0 mm 0,7 km/h (0 Bft) S-SO 202 0 min 0 W/m 13,6 C 16,3 C 0,7 km/h (0 Bft)
04/07/2012 03:50 16,2 C 84 % 1013,0 hPa 0,0 mm 0,4 km/h (0 Bft) S-SO 202 0 min 0 W/m 13,5 C 16,2 C 0,4 km/h (0 Bft)
04/07/2012 04:00 16,1 C 84 % 1012,9 hPa 0,0 mm 0,0 km/h (0 Bft) SO 225 0 min 0 W/m 13,4 C 16,1 C 0,0 km/h (0 Bft)
04/07/2012 04:10 15,9 C 84 % 1012,7 hPa 0,0 mm 0,4 km/h (0 Bft) SO 225 0 min 0 W/m 13,2 C 15,9 C 3,2 km/h (1 Bft)
04/07/2012 04:20 15,9 C 84 % 1012,8 hPa 0,0 mm 1,8 km/h (1 Bft) SO 225 0 min 0 W/m 13,2 C 15,9 C 3,6 km/h (1 Bft)
04/07/2012 04:30 15,8 C 85 % 1012,8 hPa 0,0 mm 1,4 km/h (1 Bft) SO 225 0 min 0 W/m 13,3 C 15,8 C 3,6 km/h (1 Bft)
04/07/2012 04:40 15,8 C 85 % 1012,7 hPa 0,0 mm 0,4 km/h (0 Bft) SO 225 0 min 0 W/m 13,3 C 15,8 C 0,4 km/h (0 Bft)
04/07/2012 04:50 15,8 C 85 % 1012,7 hPa 0,0 mm 0,0 km/h (0 Bft) SO 225 0 min 0 W/m 13,3 C 15,8 C 3,6 km/h (1 Bft)
04/07/2012 05:00 15,6 C 85 % 1012,5 hPa 0,0 mm 0,0 km/h (0 Bft) SO 225 0 min 0 W/m 13,1 C 15,6 C 0,0 km/h (0 Bft)
04/07/2012 05:10 15,5 C 85 % 1012,6 hPa 0,0 mm 0,0 km/h (0 Bft) SO 225 0 min 0 W/m 13,0 C 15,5 C 0,0 km/h (0 Bft)
04/07/2012 05:20 15,4 C 85 % 1012,5 hPa 0,0 mm 0,0 km/h (0 Bft) SO 225 0 min 0 W/m 12,9 C 15,4 C 3,6 km/h (1 Bft)
04/07/2012 05:30 15,3 C 85 % 1012,5 hPa 0,0 mm 0,0 km/h (0 Bft) SO 225 0 min 0 W/m 12,8 C 15,3 C 0,0 km/h (0 Bft)
04/07/2012 05:40 15,1 C 85 % 1012,5 hPa 0,0 mm 0,0 km/h (0 Bft) SO 225 0 min 0 W/m 12,6 C 15,1 C 0,0 km/h (0 Bft)
04/07/2012 05:50 14,9 C 85 % 1012,4 hPa 0,0 mm 0,0 km/h (0 Bft) SO 225 0 min 0 W/m 12,4 C 14,9 C 0,0 km/h (0 Bft)
04/07/2012 06:00 14,8 C 85 % 1012,4 hPa 0,0 mm 0,0 km/h (0 Bft) SO 225 0 min 0 W/m 12,3 C 14,8 C 0,0 km/h (0 Bft)
04/07/2012 06:10 14,7 C 85 % 1012,3 hPa 0,0 mm 0,0 km/h (0 Bft) SO 225 0 min 0 W/m 12,2 C 14,7 C 0,0 km/h (0 Bft)
04/07/2012 06:20 14,5 C 85 % 1012,3 hPa 0,0 mm 0,0 km/h (0 Bft) SO 225 0 min 0 W/m 12,0 C 14,5 C 0,0 km/h (0 Bft)
04/07/2012 06:30 14,4 C 85 % 1012,4 hPa 0,0 mm 0,0 km/h (0 Bft) SO 225 0 min 0 W/m 11,9 C 14,4 C 0,0 km/h (0 Bft)
04/07/2012 06:40 14,4 C 86 % 1012,6 hPa 0,0 mm 0,0 km/h (0 Bft) SO 225 0 min 0 W/m 12,1 C 14,4 C 0,0 km/h (0 Bft)
04/07/2012 06:50 14,5 C 87 % 1012,6 hPa 0,0 mm 0,0 km/h (0 Bft) SO 225 0 min 0 W/m 12,4 C 14,5 C 0,0 km/h (0 Bft)
04/07/2012 07:00 14,6 C 88 % 1012,6 hPa 0,0 mm 0,0 km/h (0 Bft) S 180 0 min 0 W/m 12,6 C 14,6 C 0,0 km/h (0 Bft)
04/07/2012 07:10 14,8 C 88 % 1012,4 hPa 0,0 mm 0,0 km/h (0 Bft) E-NE 67 0 min 0 W/m 12,8 C 14,8 C 0,0 km/h (0 Bft)
04/07/2012 07:20 14,9 C 89 % 1012,7 hPa 0,0 mm 0,4 km/h (0 Bft) SO 225 0 min 0 W/m 13,1 C 14,9 C 3,2 km/h (1 Bft)
04/07/2012 07:30 14,9 C 88 % 1012,7 hPa 0,0 mm 0,0 km/h (0 Bft) O-SO 247 0 min 0 W/m 12,9 C 14,9 C 0,0 km/h (0 Bft)
04/07/2012 07:40 14,9 C 89 % 1012,7 hPa 0,0 mm 2,5 km/h (1 Bft) O-SO 247 0 min 0 W/m 13,1 C 14,9 C 3,6 km/h (1 Bft)
04/07/2012 07:50 14,9 C 89 % 1012,7 hPa 0,0 mm 0,0 km/h (0 Bft) O 270 0 min 0 W/m 13,1 C 14,9 C 0,0 km/h (0 Bft)
04/07/2012 08:00 15,2 C 89 % 1012,7 hPa 0,0 mm 2,9 km/h (1 Bft) S-SO 202 0 min 0 W/m 13,4 C 15,2 C 4,0 km/h (1 Bft)
04/07/2012 08:10 15,4 C 89 % 1012,6 hPa 0,0 mm 1,8 km/h (1 Bft) SO 225 0 min 0 W/m 13,6 C 15,4 C 4,0 km/h (1 Bft)
04/07/2012 08:20 15,8 C 88 % 1012,6 hPa 0,0 mm 1,1 km/h (1 Bft) S-SO 202 0 min 0 W/m 13,8 C 15,8 C 3,6 km/h (1 Bft)
04/07/2012 08:30 16,1 C 87 % 1012,6 hPa 0,0 mm 0,0 km/h (0 Bft) SO 225 0 min 0 W/m 13,9 C 16,1 C 0,0 km/h (0 Bft)
04/07/2012 08:50 16,6 C 87 % 1012,7 hPa 0,0 mm 0,0 km/h (0 Bft) S-SE 157 0 min 0 W/m 14,4 C 16,6 C 0,0 km/h (0 Bft)
04/07/2012 09:00 16,8 C 86 % 1012,8 hPa 0,0 mm 1,1 km/h (1 Bft) SO 225 0 min 0 W/m 14,4 C 16,8 C 3,6 km/h (1 Bft)
04/07/2012 09:10 16,9 C 87 % 1013,1 hPa 0,0 mm 1,4 km/h (1 Bft) SO 225 0 min 0 W/m 14,7 C 16,9 C 3,6 km/h (1 Bft)
04/07/2012 09:20 17,1 C 87 % 1013,0 hPa 0,0 mm 2,5 km/h (1 Bft) S-SO 202 0 min 0 W/m 14,9 C 17,1 C 4,3 km/h (1 Bft)
04/07/2012 09:30 17,3 C 87 % 1013,4 hPa 0,0 mm 2,5 km/h (1 Bft) SO 225 0 min 0 W/m 15,1 C 17,3 C 4,3 km/h (1 Bft)
04/07/2012 09:40 17,5 C 86 % 1013,5 hPa 0,0 mm 0,7 km/h (0 Bft) S-SE 157 0 min 0 W/m 15,1 C 17,5 C 0,7 km/h (0 Bft)
04/07/2012 09:50 17,5 C 85 % 1013,4 hPa 0,0 mm 0,0 km/h (0 Bft) SO 225 0 min 0 W/m 14,9 C 17,5 C 0,0 km/h (0 Bft)
04/07/2012 10:00 17,6 C 84 % 1013,2 hPa 0,0 mm 0,0 km/h (0 Bft) N-NO 337 0 min 0 W/m 14,9 C 17,6 C 0,0 km/h (0 Bft)
04/07/2012 10:10 17,5 C 84 % 1013,1 hPa 0,0 mm 0,0 km/h (0 Bft) N-NO 337 0 min 0 W/m 14,8 C 17,5 C 0,0 km/h (0 Bft)
04/07/2012 10:20 17,6 C 84 % 1012,9 hPa 0,0 mm 0,0 km/h (0 Bft) NO 315 0 min 0 W/m 14,9 C 17,6 C 0,0 km/h (0 Bft)
04/07/2012 10:30 17,8 C 84 % 1012,8 hPa 0,0 mm 0,0 km/h (0 Bft) S-SE 157 0 min 0 W/m 15,1 C 17,8 C 0,0 km/h (0 Bft)
04/07/2012 10:40 17,9 C 84 % 1012,7 hPa 0,0 mm 0,7 km/h (0 Bft) S-SE 157 0 min 0 W/m 15,2 C 17,9 C 0,7 km/h (0 Bft)
04/07/2012 10:50 18,2 C 84 % 1012,6 hPa 0,0 mm 0,0 km/h (0 Bft) SO 225 0 min 0 W/m 15,4 C 18,2 C 0,0 km/h (0 Bft)
04/07/2012 11:00 18,3 C 83 % 1012,3 hPa 0,0 mm 0,0 km/h (0 Bft) SE 135 0 min 0 W/m 15,4 C 18,3 C 0,0 km/h (0 Bft)
04/07/2012 11:10 18,4 C 83 % 1012,4 hPa 0,0 mm 0,0 km/h (0 Bft) S 180 0 min 0 W/m 15,5 C 18,4 C 0,0 km/h (0 Bft)
04/07/2012 11:20 18,5 C 83 % 1012,4 hPa 0,0 mm 0,0 km/h (0 Bft) SO 225 0 min 0 W/m 15,6 C 18,5 C 0,0 km/h (0 Bft)
04/07/2012 11:30 18,6 C 82 % 1012,5 hPa 0,0 mm 0,0 km/h (0 Bft) N-NO 337 0 min 0 W/m 15,5 C 18,6 C 0,0 km/h (0 Bft)
04/07/2012 11:40 18,5 C 82 % 1012,8 hPa 0,0 mm 1,1 km/h (1 Bft) O-NO 292 0 min 0 W/m 15,4 C 18,5 C 4,0 km/h (1 Bft)
04/07/2012 11:50 18,4 C 83 % 1012,8 hPa 0,1 mm 0,0 km/h (0 Bft) O 270 0 min 0 W/m 15,5 C 18,4 C 3,2 km/h (1 Bft)
04/07/2012 12:00 18,2 C 83 % 1012,9 hPa 0,1 mm 0,0 km/h (0 Bft) O 270 0 min 0 W/m 15,3 C 18,2 C 0,0 km/h (0 Bft)
04/07/2012 12:10 18,0 C 84 % 1012,8 hPa 0,0 mm 0,0 km/h (0 Bft) N-NO 337 0 min 0 W/m 15,3 C 18,0 C 1,4 km/h (1 Bft)
04/07/2012 12:20 17,9 C 84 % 1012,6 hPa 0,0 mm 0,0 km/h (0 Bft) NE 45 0 min 0 W/m 15,2 C 17,9 C 0,0 km/h (0 Bft)
04/07/2012 12:30 17,8 C 84 % 1012,9 hPa 0,0 mm 2,9 km/h (1 Bft) NO 315 0 min 0 W/m 15,1 C 17,8 C 2,9 km/h (1 Bft)
04/07/2012 12:40 17,8 C 85 % 1013,0 hPa 0,0 mm 0,0 km/h (0 Bft) O-NO 292 0 min 0 W/m 15,2 C 17,8 C 1,4 km/h (1 Bft)
04/07/2012 12:50 17,6 C 85 % 1012,8 hPa 0,1 mm 0,0 km/h (0 Bft) O-NO 292 0 min 0 W/m 15,0 C 17,6 C 0,0 km/h (0 Bft)
04/07/2012 13:00 17,4 C 85 % 1012,7 hPa 0,1 mm 0,0 km/h (0 Bft) O-NO 292 0 min 0 W/m 14,8 C 17,4 C 0,0 km/h (0 Bft)
04/07/2012 13:10 17,3 C 86 % 1012,9 hPa 0,0 mm 1,4 km/h (1 Bft) SO 225 0 min 0 W/m 14,9 C 17,3 C 3,6 km/h (1 Bft)
04/07/2012 13:20 17,4 C 87 % 1013,2 hPa 0,0 mm 0,4 km/h (0 Bft) SO 225 0 min 0 W/m 15,2 C 17,4 C 3,6 km/h (1 Bft)
04/07/2012 13:30 17,7 C 88 % 1013,2 hPa 0,0 mm 0,4 km/h (0 Bft) O-SO 247 0 min 0 W/m 15,7 C 17,7 C 2,9 km/h (1 Bft)
04/07/2012 13:40 17,9 C 86 % 1013,1 hPa 0,0 mm 1,1 km/h (1 Bft) O-SO 247 0 min 0 W/m 15,5 C 17,9 C 6,8 km/h (2 Bft)
04/07/2012 13:50 17,9 C 84 % 1013,3 hPa 0,2 mm 1,8 km/h (1 Bft) SO 225 0 min 0 W/m 15,2 C 17,9 C 3,6 km/h (1 Bft)
04/07/2012 14:00 17,7 C 84 % 1013,2 hPa 0,1 mm 0,0 km/h (0 Bft) S-SO 202 0 min 0 W/m 15,0 C 17,7 C 0,0 km/h (0 Bft)
04/07/2012 14:10 17,5 C 84 % 1013,1 hPa 0,0 mm 2,9 km/h (1 Bft) SO 225 0 min 0 W/m 14,8 C 17,5 C 4,0 km/h (1 Bft)
04/07/2012 14:20 17,4 C 85 % 1013,0 hPa 0,2 mm 0,4 km/h (0 Bft) S-SO 202 0 min 0 W/m 14,8 C 17,4 C 0,4 km/h (0 Bft)
04/07/2012 14:30 17,4 C 86 % 1013,0 hPa 0,0 mm 0,0 km/h (0 Bft) SO 225 0 min 0 W/m 15,0 C 17,4 C 0,0 km/h (0 Bft)
04/07/2012 14:40 17,7 C 86 % 1012,9 hPa 0,0 mm 2,5 km/h (1 Bft) S-SO 202 0 min 0 W/m 15,3 C 17,7 C 4,0 km/h (1 Bft)
04/07/2012 14:50 18,1 C 85 % 1012,9 hPa 0,0 mm 2,5 km/h (1 Bft) S-SO 202 0 min 0 W/m 15,5 C 18,1 C 7,2 km/h (2 Bft)
04/07/2012 15:00 18,6 C 83 % 1012,9 hPa 0,0 mm 1,1 km/h (1 Bft) S-SO 202 0 min 0 W/m 15,7 C 18,6 C 1,1 km/h (1 Bft)
04/07/2012 15:10 19,0 C 82 % 1012,7 hPa 0,0 mm 2,2 km/h (1 Bft) S-SO 202 0 min 0 W/m 15,9 C 19,0 C 4,3 km/h (1 Bft)
04/07/2012 15:20 19,4 C 81 % 1012,7 hPa 0,0 mm 0,7 km/h (0 Bft) O-SO 247 0 min 0 W/m 16,1 C 19,4 C 3,2 km/h (1 Bft)
04/07/2012 15:30 19,5 C 80 % 1012,6 hPa 0,0 mm 0,0 km/h (0 Bft) SO 225 0 min 0 W/m 16,0 C 19,5 C 2,9 km/h (1 Bft)
04/07/2012 15:40 19,6 C 80 % 1012,6 hPa 0,0 mm 3,6 km/h (1 Bft) SO 225 0 min 0 W/m 16,1 C 19,6 C 4,0 km/h (1 Bft)
04/07/2012 15:50 20,0 C 80 % 1012,4 hPa 0,0 mm 5,4 km/h (2 Bft) S-SO 202 0 min 0 W/m 16,4 C 20,0 C 7,2 km/h (2 Bft)
04/07/2012 16:00 20,5 C 80 % 1012,5 hPa 0,0 mm 2,2 km/h (1 Bft) S-SO 202 0 min 0 W/m 16,9 C 20,5 C 7,2 km/h (2 Bft)
04/07/2012 16:10 20,9 C 78 % 1012,3 hPa 0,0 mm 1,1 km/h (1 Bft) SO 225 0 min 0 W/m 16,9 C 20,9 C 4,3 km/h (1 Bft)
04/07/2012 16:20 21,3 C 77 % 1012,2 hPa 0,0 mm 0,7 km/h (0 Bft) O 270 0 min 0 W/m 17,1 C 21,3 C 2,9 km/h (1 Bft)
04/07/2012 16:30 21,4 C 75 % 1012,2 hPa 0,0 mm 1,8 km/h (1 Bft) S-SO 202 0 min 0 W/m 16,8 C 21,4 C 3,6 km/h (1 Bft)
04/07/2012 16:40 21,3 C 74 % 1012,2 hPa 0,0 mm 4,3 km/h (1 Bft) S-SO 202 0 min 0 W/m 16,5 C 21,3 C 6,5 km/h (2 Bft)
04/07/2012 16:50 20,9 C 75 % 1012,2 hPa 0,0 mm 4,3 km/h (1 Bft) O 270 0 min 0 W/m 16,3 C 20,9 C 13,0 km/h (3 Bft)
04/07/2012 17:00 20,9 C 76 % 1012,1 hPa 0,0 mm 2,5 km/h (1 Bft) S-SO 202 0 min 0 W/m 16,5 C 20,9 C 5,4 km/h (2 Bft)
04/07/2012 17:10 21,1 C 75 % 1012,2 hPa 0,0 mm 2,9 km/h (1 Bft) O-SO 247 0 min 0 W/m 16,5 C 21,1 C 4,0 km/h (1 Bft)
04/07/2012 17:20 21,3 C 76 % 1011,9 hPa 0,0 mm 0,4 km/h (0 Bft) SO 225 0 min 0 W/m 16,9 C 21,3 C 3,6 km/h (1 Bft)
04/07/2012 17:30 21,4 C 74 % 1011,8 hPa 0,0 mm 1,8 km/h (1 Bft) S-SO 202 0 min 0 W/m 16,6 C 21,4 C 4,0 km/h (1 Bft)
04/07/2012 17:40 21,6 C 74 % 1011,7 hPa 0,0 mm 3,6 km/h (1 Bft) SO 225 0 min 0 W/m 16,8 C 21,6 C 10,1 km/h (2 Bft)
04/07/2012 17:50 21,8 C 71 % 1011,6 hPa 0,0 mm 4,0 km/h (1 Bft) S-SO 202 0 min 0 W/m 16,3 C 21,8 C 8,3 km/h (2 Bft)
04/07/2012 18:00 21,8 C 71 % 1011,6 hPa 0,0 mm 2,5 km/h (1 Bft) O 270 0 min 0 W/m 16,3 C 21,8 C 6,8 km/h (2 Bft)
04/07/2012 18:10 21,6 C 72 % 1011,6 hPa 0,0 mm 1,1 km/h (1 Bft) S-SO 202 0 min 0 W/m 16,3 C 21,6 C 4,3 km/h (1 Bft)
04/07/2012 18:20 21,4 C 72 % 1011,6 hPa 0,0 mm 2,2 km/h (1 Bft) S 180 0 min 0 W/m 16,1 C 21,4 C 5,4 km/h (2 Bft)
04/07/2012 18:30 21,3 C 73 % 1011,5 hPa 0,0 mm 2,5 km/h (1 Bft) O 270 0 min 0 W/m 16,3 C 21,3 C 8,3 km/h (2 Bft)
04/07/2012 18:40 21,4 C 72 % 1011,4 hPa 0,0 mm 5,4 km/h (2 Bft) SO 225 0 min 0 W/m 16,1 C 21,4 C 5,4 km/h (2 Bft)
04/07/2012 18:50 21,4 C 71 % 1011,4 hPa 0,0 mm 4,0 km/h (1 Bft) SO 225 0 min 0 W/m 15,9 C 21,4 C 8,3 km/h (2 Bft)
04/07/2012 19:00 21,4 C 72 % 1011,4 hPa 0,0 mm 7,6 km/h (2 Bft) O-SO 247 0 min 0 W/m 16,1 C 21,4 C 11,5 km/h (2 Bft)
04/07/2012 19:10 21,4 C 72 % 1011,4 hPa 0,0 mm 1,4 km/h (1 Bft) SO 225 0 min 0 W/m 16,1 C 21,4 C 1,4 km/h (1 Bft)
04/07/2012 19:20 21,4 C 72 % 1011,4 hPa 0,0 mm 2,9 km/h (1 Bft) S-SO 202 0 min 0 W/m 16,1 C 21,4 C 6,5 km/h (2 Bft)
04/07/2012 19:30 21,3 C 72 % 1011,4 hPa 0,0 mm 2,9 km/h (1 Bft) S-SO 202 0 min 0 W/m 16,0 C 21,3 C 4,0 km/h (1 Bft)
04/07/2012 19:40 21,4 C 73 % 1011,3 hPa 0,0 mm 1,8 km/h (1 Bft) O 270 0 min 0 W/m 16,4 C 21,4 C 3,2 km/h (1 Bft)
04/07/2012 19:50 21,4 C 70 % 1011,3 hPa 0,0 mm 3,2 km/h (1 Bft) O 270 0 min 0 W/m 15,7 C 21,4 C 3,2 km/h (1 Bft)
04/07/2012 20:00 21,8 C 70 % 1011,2 hPa 0,0 mm 1,8 km/h (1 Bft) SO 225 0 min 0 W/m 16,1 C 21,8 C 4,3 km/h (1 Bft)
04/07/2012 20:10 21,8 C 70 % 1011,1 hPa 0,0 mm 0,0 km/h (0 Bft) O-NO 292 0 min 0 W/m 16,1 C 21,8 C 0,0 km/h (0 Bft)
04/07/2012 20:20 21,6 C 70 % 1011,0 hPa 0,0 mm 1,1 km/h (1 Bft) O 270 0 min 0 W/m 15,9 C 21,6 C 4,0 km/h (1 Bft)
04/07/2012 20:30 21,3 C 70 % 1011,0 hPa 0,0 mm 0,0 km/h (0 Bft) O-SO 247 0 min 0 W/m 15,6 C 21,3 C 3,2 km/h (1 Bft)
04/07/2012 20:40 20,9 C 71 % 1011,1 hPa 0,0 mm 0,0 km/h (0 Bft) O-SO 247 0 min 0 W/m 15,4 C 20,9 C 0,0 km/h (0 Bft)
04/07/2012 20:50 20,6 C 71 % 1011,2 hPa 0,0 mm 2,2 km/h (1 Bft) O 270 0 min 0 W/m 15,2 C 20,6 C 9,7 km/h (2 Bft)
04/07/2012 21:00 20,3 C 72 % 1011,2 hPa 0,0 mm 0,4 km/h (0 Bft) O 270 0 min 0 W/m 15,1 C 20,3 C 0,4 km/h (0 Bft)
04/07/2012 21:10 19,9 C 73 % 1011,4 hPa 0,0 mm 0,0 km/h (0 Bft) O-SO 247 0 min 0 W/m 14,9 C 19,9 C 0,0 km/h (0 Bft)
04/07/2012 21:20 19,8 C 74 % 1011,4 hPa 0,0 mm 0,0 km/h (0 Bft) O-SO 247 0 min 0 W/m 15,0 C 19,8 C 0,0 km/h (0 Bft)
04/07/2012 21:30 19,5 C 74 % 1011,4 hPa 0,0 mm 0,0 km/h (0 Bft) O-SO 247 0 min 0 W/m 14,7 C 19,5 C 0,0 km/h (0 Bft)
04/07/2012 21:40 19,3 C 75 % 1011,3 hPa 0,0 mm 0,0 km/h (0 Bft) O 270 0 min 0 W/m 14,8 C 19,3 C 0,0 km/h (0 Bft)
04/07/2012 21:50 19,1 C 76 % 1011,3 hPa 0,0 mm 0,0 km/h (0 Bft) O-SO 247 0 min 0 W/m 14,8 C 19,1 C 0,0 km/h (0 Bft)
04/07/2012 22:00 18,8 C 78 % 1011,3 hPa 0,0 mm 0,0 km/h (0 Bft) O-SO 247 0 min 0 W/m 14,9 C 18,8 C 0,0 km/h (0 Bft)
04/07/2012 22:10 18,6 C 79 % 1011,4 hPa 0,0 mm 0,0 km/h (0 Bft) S 180 0 min 0 W/m 14,9 C 18,6 C 0,0 km/h (0 Bft)
04/07/2012 22:20 18,4 C 80 % 1011,4 hPa 0,0 mm 0,0 km/h (0 Bft) S 180 0 min 0 W/m 14,9 C 18,4 C 0,0 km/h (0 Bft)
04/07/2012 22:30 18,1 C 80 % 1011,5 hPa 0,0 mm 0,0 km/h (0 Bft) SO 225 0 min 0 W/m 14,6 C 18,1 C 0,0 km/h (0 Bft)
04/07/2012 22:40 17,8 C 80 % 1011,6 hPa 0,0 mm 0,0 km/h (0 Bft) SO 225 0 min 0 W/m 14,3 C 17,8 C 0,0 km/h (0 Bft)
_ Min-Heure 06:40 20:30 20:30 - 22:40 - - - - 06:30 06:40 22:40
Minimum _ 14,4 C 70 % 1011,0 hPa - 0,0 km/h (0 Bft) - - - - 11,9 C 14,4 C 0,0 km/h (0 Bft)
_ Max-Heure 20:10 08:10 00:00 14:20 19:00 - - 22:40 22:40 16:20 20:10 16:50
Maximum _ 21,8 C 89 % 1014,1 hPa 0,2 mm 7,6 km/h
O-SO (2 Bft)
- - 0 min 0 W/m 17,1 C 21,8 C 13,0 km/h
O (3 Bft)
Moyenne _ 18,1 C 80 % 1012,5 hPa #0,9 mm 0,9 km/h (0 Bft) SO - #0 min. 0 W/m 14,6 C 18,1 C 2,1 km/h (1 Bft)
Saint Bonnet de Bellac- Haute Vienne - France